Location: Heidgraben
(53.7081°N, 9.6576°E)
Time: 10:56:11
(UTC+00:00)

ATLAS 5 CENTAUR R/B - Pass Details

Date: 05 July 2020
Orbit: 534 x 1124 km, 63.4° (Epoch: 03 August)

Event Time Altitude Azimuth Distance (km) Brightness Sun altitude
Rises 22:51:27 0° 265° (W) 2,829 5.0 -13.3°
Reaches altitude 10° 22:53:44 10° 275° (W) 1,993 4.3 -13.3°
Maximum altitude 22:57:52 34° 342° (NNW) 1,121 3.6 -13.4°
Drops below altitude 10° 23:02:37 10° 47° (NE) 2,308 5.0 -13.5°
Sets 23:05:27 0° 57° (ENE) 3,348 5.7 -13.5°
